TimeCDT,TemperatureF,Dew PointF,Humidity,Sea Level PressureIn,VisibilityMPH,Wind Direction,Wind SpeedMPH,Gust SpeedMPH,PrecipitationIn,Events,Conditions,WindDirDegrees,DateUTC
12:53 AM,57.9,48.9,72,30.09,10.0,North,13.8,-,N/A,,Overcast,10,2012-10-06 05:53:00
1:53 AM,57.0,48.0,72,30.10,10.0,North,15.0,-,N/A,,Overcast,10,2012-10-06 06:53:00
2:53 AM,57.0,48.0,72,30.10,10.0,North,12.7,-,N/A,,Overcast,10,2012-10-06 07:53:00
3:53 AM,57.0,48.0,72,30.09,10.0,NNE,12.7,-,N/A,,Overcast,20,2012-10-06 08:53:00
4:53 AM,55.9,48.0,75,30.09,10.0,North,10.4,18.4,N/A,,Overcast,10,2012-10-06 09:53:00
5:53 AM,55.0,46.9,74,30.12,10.0,North,10.4,-,N/A,,Overcast,360,2012-10-06 10:53:00
6:53 AM,54.0,46.9,77,30.14,10.0,NNE,13.8,-,N/A,,Overcast,20,2012-10-06 11:53:00
7:12 AM,53.6,46.4,77,30.14,10.0,NNE,13.8,-,N/A,,Overcast,20,2012-10-06 12:12:00
7:53 AM,53.1,48.0,83,30.14,7.0,NNE,11.5,-,N/A,,Overcast,20,2012-10-06 12:53:00
8:34 AM,51.8,48.2,88,30.15,7.0,NNE,11.5,-,N/A,,Overcast,20,2012-10-06 13:34:00
9:53 AM,53.1,48.9,86,30.15,10.0,NNE,11.5,-,N/A,,Overcast,20,2012-10-06 14:53:00
10:53 AM,53.1,50.0,89,30.16,2.0,North,11.5,-,0.00,Rain,Light Rain,10,2012-10-06 15:53:00
11:23 AM,53.6,51.8,94,30.16,3.0,North,8.1,-,0.00,,Overcast,10,2012-10-06 16:23:00
11:53 AM,55.9,50.0,80,30.16,10.0,NE,8.1,-,0.00,,Overcast,40,2012-10-06 16:53:00
12:53 PM,55.9,50.0,80,30.15,10.0,NE,6.9,-,0.00,,Overcast,50,2012-10-06 17:53:00
1:53 PM,57.0,46.9,69,30.14,10.0,NNE,10.4,-,N/A,,Overcast,20,2012-10-06 18:53:00
2:53 PM,57.0,45.0,64,30.13,10.0,NE,9.2,-,N/A,,Overcast,50,2012-10-06 19:53:00
3:53 PM,57.0,43.0,59,30.12,10.0,NE,12.7,-,N/A,,Overcast,50,2012-10-06 20:53:00
4:13 PM,57.2,42.8,59,30.13,10.0,NNE,9.2,-,N/A,,Overcast,30,2012-10-06 21:13:00
4:53 PM,57.0,41.0,55,30.13,10.0,NNE,12.7,-,N/A,,Overcast,20,2012-10-06 21:53:00
6:53 PM,54.0,41.0,62,30.16,10.0,NNE,16.1,20.7,N/A,,Overcast,20,2012-10-06 23:53:00
7:53 PM,52.0,39.9,63,30.19,10.0,North,15.0,-,N/A,,Overcast,10,2012-10-07 00:53:00
8:53 PM,51.1,39.9,66,30.21,10.0,NE,12.7,23.0,N/A,,Overcast,40,2012-10-07 01:53:00
9:14 PM,50.0,42.8,76,30.23,10.0,North,15.0,-,N/A,,Overcast,10,2012-10-07 02:14:00
9:53 PM,50.0,42.1,74,30.23,10.0,North,15.0,18.4,N/A,,Overcast,10,2012-10-07 02:53:00
11:14 PM,48.2,37.4,66,30.24,10.0,NNE,17.3,23.0,N/A,,Overcast,30,2012-10-07 04:14:00
11:53 PM,48.9,36.0,61,30.24,10.0,NE,9.2,-,N/A,,Overcast,40,2012-10-07 04:53:00